User: anonymous   Login
Location: Lafig�re
(44.4503°N, 4.0357°E)
Time: 11:41:37
(UTC+00:00)
Language:

Helios 1A Rocket - Orbit

View from above orbital plane
View from above orbital plane
View from above satellite
View from above satellite

Ground track
Ground track

The orbit data is extracted from the following two-line orbital elements,

1 23608U 95033D   20330.17362012  .00000151  00000-0  18686-4 0  9999
2 23608  98.3160 351.8676 0017773  69.9957 290.3175 14.97460105375801
Epoch (UTC): 25 November 2020 04:10:00
Eccentricity: 0.0017773
inclination: 98.3160°
perigee height: 562 km
apogee height: 587 km
right ascension of ascending node: 351.8676°
argument of perigee: 69.9957°
revolutions per day: 14.97460105
mean anomaly at epoch: 290.3175°
orbit number at epoch: 37580

The dashed part of the orbit path shows where the satellite is in the earth's shadow,  

DLR